Regional Weather Roundup
Issued by NWS

Home | Current Version | Previous Version | Graphics & Text | Print | Product List | Glossary On
Versions: 1 2 3 4 5 6 7 8 9 10 11 12 13 14 15 16 17 18 19 20 21 22 23 24 25 26 27 28 29 30 31 32 33 34 35 36 37 38 39 40 41 42 43 44 45 46 47 48 49 50
108
ASUS45 KTFX 111710
RWRMT
MONTANA REGIONAL WEATHER ROUNDUP
NATIONAL WEATHER SERVICE GREAT FALLS MT
1000 AM MST THU FEB 11 2016

NOTE: "FAIR" INDICATES FEW OR NO CLOUDS BELOW 12000 FEET WITH NO
SIGNIFICANT WEATHER AND/OR OBSTRUCTIONS TO VISIBILITY.

MTZ001>007-043-111800-
WEST OF THE DIVIDE

CITY           SKY/WX    TMP DP  RH WIND       PRES   REMARKS
KALISPELL      PTSUNNY   33  29  85 CALM      30.29R
MISSOULA       MOSUNNY   34  30  85 CALM      30.32R
BUTTE          CLOUDY    31  23  72 CALM      30.28R
MULLAN PASS    CLOUDY    32  31  96 S5        30.29R
ANACONDA         N/A     48  27  43 SW10      30.28R
DEER LODGE       N/A     39  30  70 CALM      30.30R
HAMILTON         N/A     43  30  61 S15       30.29S
PLAINS           N/A     36  32  85 CALM      30.31R
$$

MTZ008-052>055-111800-
SOUTHWEST MONTANA

CITY           SKY/WX    TMP DP  RH WIND       PRES   REMARKS
BOZEMAN        CLOUDY    33  26  75 E5        30.27R
DILLON         CLOUDY    37  26  64 SW16      30.28R WCI  28
ENNIS          CLOUDY    41  25  52 S17       30.36R
THREE FORKS      N/A     34  34 100 CALM      30.23R
TWIN BRIDGES     N/A     32  22  67 E7        30.25R WCI  26
$$

MTZ009-010-012-014-046-048-049-054-111800-
EAST SLOPES AND CENTRAL MONTANA

CITY           SKY/WX    TMP DP  RH WIND       PRES   REMARKS
CUT BANK       PTSUNNY   46  26  45 W14       30.16R
GREAT FALLS    SUNNY     48  28  46 SW13      30.17R
MALMSTROM AFB  SUNNY     48  30  50 SW13      30.17R
HELENA         CLOUDY    48  30  49 SW8       30.25R
CHOTEAU          N/A     50  23  34 W18       30.17R
CONRAD           N/A     50  26  39 W10       30.15R
$$

MTZ011-013-016-021-045-047-050-051-111800-
NORTH CENTRAL MONTANA

CITY           SKY/WX    TMP DP  RH WIND       PRES   REMARKS
HAVRE          PTSUNNY   38  31  76 W10       30.13R WCI  31
LEWISTOWN      SUNNY     46  28  49 NW13      30.14R
N BAR RANCH      N/A     46  25  42 NW24G32   30.11R
CHINOOK          N/A     37  32  81 W6        30.14R
$$

MTZ017>020-022>027-061-062-111800-
NORTHEAST MONTANA

CITY           SKY/WX    TMP DP  RH WIND       PRES   REMARKS
GLASGOW        CLOUDY    29  24  82 NE8       30.11R HAZE    WCI  21
JORDAN           N/A     39  32  76 N5        30.06R
SIDNEY         CLOUDY    25  21  86 N10       30.10R VSB 1   WCI  15
WOLF POINT     LGT SNOW  28  23  81 E14       30.13R VSB 1   WCI  17
PLENTYWOOD       N/A     18  16  93 NE8       30.14R WCI   7
POPLAR           N/A     25  21  86 NE12      30.13R WCI  14
SCOBEY           N/A     21  14  74 N7        30.10R VSB 0   WCI  12
$$

MTZ028>42-056>058-111800-
SOUTHCENTRAL AND SOUTHEAST MONTANA

CITY           SKY/WX    TMP DP  RH WIND       PRES   REMARKS
BAKER          LGT SNOW  34  28  79 NW12      30.01R WCI  25
BILLINGS       CLOUDY    53  26  35 NW20G28   30.16R
LIVINGSTON     CLOUDY    52  22  30 W26G35    30.19R
MILES CITY     CLOUDY    45  31  58 W14       30.05R
FORSYTH          N/A     46  32  57 W10       30.08R
LAUREL           N/A     54  25  32 W15       30.13R
ROUNDUP          N/A     51  26  38 SW8       30.03R
$$

REGIONAL REPORTS...DAKOTAS

CITY           SKY/WX    TMP DP  RH WIND       PRES   REMARKS
WILLISTON      LGT SNOW  23  19  85 NE5       30.13R VSB 1
MINOT          CLOUDY    17   8  67 N6        30.16R WCI   9
DICKINSON      LGT SNOW  23  20  88 NE9       30.01R FOG     WCI  13
BEACH          LGT SNOW  28  28 100 NE7       30.05R WCI  21
CROSBY         LGT SNOW  16  14  93 NE6       30.18R WCI   7
TIOGA          LGT SNOW  18  18 100 E9        30.16R WCI   6
WATFORD CITY   LGT SNOW  21  18  86 E10       30.11R WCI  10
BISMARCK       LGT SNOW  23  16  74 CALM      30.14R
GRAND FORKS    FLURRIES  10   3  73 SW7       30.26S WCI  -1
FARGO          CLOUDY    11   1  64 CALM      30.25F
BUFFALO SD       N/A     47  30  51 NW33G40   29.89F
RAPID CITY     SUNNY     40  33  76 VRB3      30.01S
$$

REGIONAL REPORTS...WYOMING/IDAHO/WASHINGTON

CITY           SKY/WX    TMP DP  RH WIND       PRES   REMARKS
GILLETTE       SUNNY     49  27  42 NW20G31   30.10R
SHERIDAN       CLOUDY    53  27  36 NW26G37   30.14R
BUFFALO WY     CLOUDY    48  26  42 N22G36    30.13R
CODY           CLOUDY    50  19  29 N6G16     30.18R
YELLOWSTONE LA   N/A     30  19  63 E3        30.36S
IDAHO FALLS    CLOUDY    14  11  87 N9        30.43S WCI   2
SALMON         CLOUDY    16  16 100 CALM      30.45R
BOISE          MOSUNNY   36  30  79 S5        30.40S
SPOKANE        FOG       33  33 100 NE7       30.32R VSB 1/16WCI  27
$$

REGIONAL REPORTS...ALBERTA

CITY           SKY/WX    TMP DP  RH WIND       PRES   REMARKS
EDMONTON       LGT SNOW  19  16  86 NE2       30.18R
CALGARY        PTSUNNY   39  34  81 NW8       30.15R
LETHBRIDGE     FOG       28  28 100 W10       30.20R VSB 3/4 WCI  19
MEDICINE HAT   FLURRIES  27  27 100 NW3       30.20R
WATERTON GATE    N/A     43  23  45 SW21G29     N/A
CARDSTON         N/A     46  19  34 W13G21      N/A
$$

REGIONAL REPORTS...SASKATCHEWAN

CITY           SKY/WX    TMP DP  RH WIND       PRES   REMARKS
SWIFT CURRENT  CLOUDY    18  16  93 E10       30.13S WCI   6
REGINA         FLURRIES  16  12  86 N2        30.19R
SASKATOON      FLURRIES   7   1  78 E9        30.30R WCI  -7
CYPRESS HILLS    N/A     25  23  93 NW10G18     N/A  WCI  15
VAL MARIE        N/A     28  25  86 NE7         N/A  WCI  21
ROCKGLEN         N/A     19  18  93 NE6         N/A  WCI  11
$$




USA.gov is the U.S. government's official web portal to all federal, state and local government web resources and services.